[[{"header":{"parameterUnit":"m.s-1","parameterCategory":1,"la1":30.2991,"la2":30.254,"lo1":-89.0895,"lo2":-89.0444,"dy":0.0017,"dx":0.0017,"nx":28,"ny":28,"refTime":"2024-02-22T09:00:00:Z","depth":0,"parameterNumber":2,"parameterNumberName":"U-component_of_WINDS"},"data":[0,0,0,0,0,0,0,0,0,0,0,0,0,0,0,0,0,0,0,0,0,0,0,0,0,0,0,0,0,0,0,0,0,0,0,0,0,0,0,0,0,0,0,0,0,0,0,0,0,0,0,0,0,0,0,0,0,0,3.8024,3.8024,0,3.8083,3.8084,3.8084,3.8045,3.8044,3.8042,3.804,3.8103,3.8106,3.8109,0,0,0,0,0,0,0,0,0,0,0,0,0,3.7879,3.7882,3.8023,3.8024,3.8025,3.8083,3.8084,3.8084,3.8046,3.8044,3.8041,3.8039,3.8102,3.8106,3.811,0,0,0,0,0,0,0,0,0,0,0,0,0,3.7941,3.7883,3.8023,3.8013,3.8012,3.8083,3.8084,3.8085,3.8046,3.8044,3.8041,3.8038,3.81,3.8105,3.811,3.8195,0,0,3.8126,3.8128,0,0,0,0,0,0,0,0,3.7937,3.7946,3.8013,3.8013,3.8013,3.8054,3.8056,3.8122,3.8047,3.8033,3.804,3.8037,3.8089,3.8095,3.8112,3.8198,3.8201,3.8126,3.8129,3.8131,3.8133,0,0,0,0,0,0,0,3.7933,3.7943,3.8047,3.8014,3.8014,3.8006,3.8011,3.8068,3.8076,3.8034,3.8032,3.8039,3.8088,3.8107,3.8113,3.8202,3.8126,3.813,3.8133,3.8135,3.8362,3.8365,0,0,0,0,0,0,3.7929,3.794,3.8045,3.8049,3.7968,3.801,3.8017,3.8044,3.8075,3.8077,3.8041,3.8037,3.81,3.8107,3.8115,3.8217,3.8131,3.8136,3.8139,3.8359,3.8363,3.8366,0,0,0,0,0,0,3.7926,3.7939,3.8043,3.7994,3.8006,3.8016,3.8046,3.8046,3.8065,3.808,3.8082,3.8059,3.8098,3.8108,3.8176,3.8219,3.8138,3.8143,3.8355,3.836,3.8364,3.8421,0,0,0,0,0,0,3.7922,3.7938,3.797,3.7995,3.8009,3.8102,3.8049,3.8049,3.8073,3.8068,3.8097,3.8099,3.8097,3.8168,3.8181,3.8224,3.8147,3.8352,3.8357,3.8363,3.8416,3.8427,3.8437,0,0,0,0,0,3.7917,3.7984,3.7972,3.7984,3.8049,3.8104,3.8112,3.8108,3.8077,3.8109,3.8119,3.8098,3.8212,3.8176,3.8189,3.8235,3.8349,3.8356,3.8362,3.8411,3.8425,3.8437,0,0,0,0,0,0,3.7964,3.7987,3.7973,3.805,3.8075,3.8097,3.8138,3.8123,3.8158,3.8152,3.8145,3.8152,3.8223,3.8235,3.8194,3.8319,3.8276,3.8286,3.8308,3.8322,3.8332,3.8328,3.8151,0,0,0,0,0,3.7983,3.8025,3.8043,3.8109,3.8122,3.8128,3.8152,3.8147,3.8173,3.8184,3.8199,3.8226,3.8268,3.8295,3.8335,3.8418,3.8424,3.8456,3.8467,3.8475,3.8484,3.853,3.8544,3.8388,3.8388,3.8388,0,0,3.8022,3.804,3.8068,3.8119,3.8138,3.8183,3.8138,3.8187,3.8221,3.8191,3.8256,3.8268,3.8298,3.8374,3.8408,3.8387,3.8529,3.8484,3.8491,3.8495,3.8538,3.8553,3.8566,3.8393,3.8392,3.8391,0,0,3.8118,3.8135,3.8192,3.8213,3.8242,3.8246,3.826,3.8285,3.8292,3.8357,3.8336,3.8377,3.8449,3.8471,3.8492,3.8598,3.858,3.8611,3.8668,3.8712,3.8725,3.8736,3.8774,3.8788,3.862,3.862,3.862,0,3.8164,3.823,3.8224,3.8275,3.8299,3.8274,3.8333,3.8353,3.8394,3.8412,3.8387,3.8478,3.8496,3.8578,3.8604,3.8621,3.8637,3.8608,3.8723,3.8734,3.8744,3.8781,3.8795,3.8624,3.8623,3.8623,3.8623,0,3.8285,3.8332,3.8375,3.8415,3.8444,3.8498,3.8501,3.8531,3.8523,3.853,3.8597,3.8619,3.8662,3.8681,3.8674,3.8762,3.8748,3.8724,3.868,3.8763,3.8797,3.8811,3.8629,3.8627,3.8626,3.8626,0,0,3.841,3.8448,3.8463,3.8482,3.8514,3.855,3.8605,3.8647,3.8673,3.8703,3.8749,3.8811,3.8789,3.8813,3.8809,3.8848,3.8932,3.8819,3.8819,3.8839,3.9031,3.9049,3.9065,3.892,3.8923,3.8925,3.9028,0,3.8508,3.8602,3.8598,3.8686,3.873,3.8709,3.8756,3.8782,3.879,3.8829,3.8838,3.8882,3.885,3.8864,3.8902,3.8913,3.897,3.8906,3.8963,3.8965,3.8956,3.9083,3.9102,3.9198,3.9042,3.9044,3.9046,0,3.8633,3.8668,3.876,3.8787,3.8805,3.8848,3.8887,3.8925,3.8954,3.8957,3.8984,3.8974,3.903,3.8985,3.9063,3.9019,3.9043,3.9052,3.9056,3.9061,3.901,3.9092,3.9229,3.9244,3.9066,3.9065,3.9063,0,3.8716,3.8785,3.885,3.8866,3.8899,3.893,3.8945,3.8971,3.8997,3.9032,3.905,3.9091,3.9113,3.9146,3.9147,3.9114,3.9226,3.9181,3.9231,3.9231,3.9255,3.9254,3.9399,3.9271,3.927,3.927,3.927,0,3.8825,3.8882,3.8887,3.8927,3.8991,3.8988,3.9052,3.9064,3.9088,3.9131,3.9115,3.9155,3.9154,3.9196,3.9197,3.9262,3.9272,3.9277,3.9277,3.9279,3.9278,3.9294,3.9287,3.9274,3.9273,3.9272,3.9272,0,3.8927,3.8933,3.9002,3.9028,3.9036,3.9082,3.9104,3.9143,3.915,3.9204,3.9217,3.9228,3.9276,3.9281,3.9337,3.9338,3.9416,3.9409,3.9406,3.9405,3.9455,3.945,3.9615,3.9637,3.9495,3.9496,3.9497,0,3.8996,3.904,3.9071,3.9098,3.9115,3.9159,3.9186,3.9185,3.9214,3.9251,3.9286,3.9332,3.9369,3.9447,3.9461,3.9504,3.9497,3.9552,3.9503,3.9504,3.9498,3.9496,3.95,3.9561,3.9563,3.9564,3.9565,0,3.9118,3.9119,3.9159,3.92,3.9233,3.9265,3.9295,3.9319,3.9321,3.9355,3.9404,3.9433,3.949,3.9537,3.9579,3.9596,3.9582,3.9581,3.9594,3.9596,3.9593,3.9596,3.9432,3.9577,3.9575,3.9575,3.9574,3.9573,3.9206,3.9245,3.9273,3.9318,3.9341,3.937,3.9407,3.942,3.946,3.9507,3.9504,3.9559,3.9588,3.9643,3.9663,3.9706,3.9688,3.9708,3.9713,3.9718,3.9723,3.9587,3.9714,3.9713,3.9713,3.9713,3.9713,0,3.9328,3.9345,3.9387,3.943,3.9466,3.9449,3.9482,3.9514,3.9561,3.959,3.9627,3.9684,3.973,3.9748,3.9792,3.9823,3.9818,3.9835,3.9833,3.9837,3.9737,3.972,3.9839,3.9839,3.9839,3.9839,3.9839,3.9839,3.9395,3.946,3.9464,3.9541,3.9558,3.9611,3.9632,3.9659,3.9681,3.9746,3.9784,3.9795,3.982,3.9867,3.9908,3.9912,3.993,3.995,3.9951,3.9857,3.9844,3.9832,3.9816,3.9953,3.9954,4.0048,4.0049,4.005]},{"header":{"parameterUnit":"m.s-1","parameterCategory":1,"la1":30.2991,"la2":30.254,"lo1":-89.0895,"lo2":-89.0444,"dy":0.0017,"dx":0.0017,"nx":28,"ny":28,"refTime":"2024-02-22T09:00:00:Z","depth":0,"parameterNumber":3,"parameterNumberName":"V-component_of_WINDS"},"data":[0,0,0,0,0,0,0,0,0,0,0,0,0,0,0,0,0,0,0,0,0,0,0,0,0,0,0,0,0,0,0,0,0,0,0,0,0,0,0,0,0,0,0,0,0,0,0,0,0,0,0,0,0,0,0,0,0,0,3.7734,3.7735,0,3.7838,3.7839,3.784,3.7819,3.7817,3.7816,3.7814,3.7918,3.7923,3.7927,0,0,0,0,0,0,0,0,0,0,0,0,0,3.7518,3.7522,3.7734,3.7735,3.7737,3.7837,3.7839,3.784,3.782,3.7817,3.7815,3.7813,3.7917,3.7922,3.7928,0,0,0,0,0,0,0,0,0,0,0,0,0,3.7616,3.7523,3.7734,3.7739,3.774,3.7837,3.7839,3.7841,3.782,3.7817,3.7814,3.7812,3.7915,3.7922,3.7929,3.8027,0,0,3.7949,3.7952,0,0,0,0,0,0,0,0,3.761,3.7624,3.7737,3.7738,3.774,3.7813,3.7801,3.7903,3.7821,3.779,3.7814,3.781,3.7885,3.7895,3.792,3.8032,3.8036,3.795,3.7954,3.7957,3.7959,0,0,0,0,0,0,0,3.7603,3.7619,3.7775,3.7738,3.774,3.7735,3.7746,3.782,3.7852,3.7792,3.7791,3.7804,3.7886,3.7914,3.7922,3.8038,3.795,3.7956,3.796,3.7963,3.8238,3.8242,0,0,0,0,0,0,3.7595,3.7614,3.7772,3.7778,3.7667,3.7742,3.7754,3.7792,3.7851,3.7858,3.7806,3.7802,3.7903,3.7914,3.7926,3.8048,3.7957,3.7963,3.7967,3.8235,3.8239,3.8243,0,0,0,0,0,0,3.7591,3.7609,3.7767,3.7696,3.7715,3.7748,3.7792,3.7796,3.7824,3.7862,3.7867,3.7828,3.7902,3.7916,3.8003,3.8051,3.7966,3.7973,3.8231,3.8236,3.8241,3.829,0,0,0,0,0,0,3.7584,3.7608,3.7646,3.7697,3.7719,3.7843,3.7795,3.78,3.7836,3.7832,3.7884,3.789,3.79,3.7993,3.801,3.8059,3.7978,3.8227,3.8234,3.8239,3.8284,3.8296,3.8306,0,0,0,0,0,3.7577,3.7654,3.7648,3.7667,3.7767,3.7846,3.7859,3.7869,3.7839,3.7878,3.7903,3.7889,3.8042,3.8002,3.8021,3.8072,3.8224,3.8232,3.8239,3.8279,3.8294,3.8306,0,0,0,0,0,0,3.7607,3.7661,3.7654,3.7751,3.7794,3.7842,3.7891,3.7884,3.7936,3.793,3.794,3.7952,3.8041,3.8065,3.8019,3.8172,3.8129,3.8141,3.8154,3.8167,3.8178,3.8171,3.7984,0,0,0,0,0,3.7625,3.7685,3.7728,3.7809,3.7832,3.7858,3.7892,3.7897,3.7942,3.796,3.799,3.8034,3.8093,3.8131,3.8186,3.8287,3.8299,3.8332,3.8343,3.8351,3.8362,3.8419,3.8435,3.8267,3.8267,3.8266,0,0,3.7663,3.77,3.7737,3.7817,3.7851,3.7912,3.7873,3.7939,3.7986,3.7969,3.8054,3.8078,3.8128,3.8222,3.8265,3.8245,3.8411,3.8361,3.8367,3.8373,3.8428,3.8444,3.8458,3.8272,3.8271,3.827,0,0,3.7764,3.7797,3.787,3.7905,3.7957,3.7974,3.7992,3.8042,3.8058,3.8142,3.8132,3.8187,3.8286,3.8323,3.8355,3.8471,3.8461,3.8489,3.8546,3.8602,3.8615,3.8627,3.8671,3.8686,3.8499,3.8499,3.8499,0,3.7805,3.7898,3.7907,3.7976,3.8012,3.8001,3.8075,3.8109,3.8176,3.8202,3.8178,3.8304,3.8337,3.8441,3.847,3.8495,3.8516,3.8484,3.8613,3.8625,3.8636,3.8678,3.8694,3.8502,3.8502,3.8501,3.8501,0,3.7946,3.8011,3.8063,3.813,3.8172,3.8242,3.8263,3.8304,3.8305,3.8325,3.8413,3.8451,3.8516,3.854,3.8541,3.8645,3.8631,3.861,3.8567,3.8655,3.8695,3.8711,3.8507,3.8506,3.8505,3.8504,0,0,3.8069,3.8142,3.8162,3.8193,3.8251,3.8301,3.8371,3.8435,3.8471,3.8518,3.8579,3.8664,3.8645,3.8681,3.8686,3.8735,3.8828,3.8708,3.8709,3.8731,3.8948,3.8965,3.8984,3.8821,3.8824,3.8826,3.8944,0,3.8178,3.8303,3.8315,3.8428,3.8489,3.848,3.8541,3.8584,3.8604,3.8659,3.868,3.8742,3.8711,3.8734,3.8781,3.8807,3.8872,3.8798,3.8878,3.8881,3.8869,3.9004,3.9022,3.9132,3.896,3.8962,3.8964,0,3.8321,3.8374,3.8493,3.8545,3.8571,3.8626,3.8687,3.8739,3.8787,3.8798,3.8839,3.8838,3.8912,3.8865,3.8967,3.8917,3.895,3.8967,3.8972,3.8982,3.893,3.902,3.9167,3.9185,3.8988,3.8986,3.8985,0,3.8402,3.8503,3.8588,3.8615,3.8676,3.8716,3.8743,3.8788,3.8827,3.8879,3.8905,3.8965,3.8998,3.9045,3.906,3.9024,3.9163,3.9116,3.9175,3.9175,3.9206,3.9205,3.9364,3.9224,3.9224,3.9223,3.9223,0,3.8523,3.8597,3.8626,3.8679,3.8762,3.8774,3.8856,3.8881,3.8922,3.898,3.8974,3.9028,3.9044,3.9102,3.9114,3.9198,3.9212,3.9224,3.9227,3.9226,3.9225,3.925,3.9244,3.9228,3.9227,3.9226,3.9225,0,3.8628,3.865,3.8743,3.8794,3.8809,3.8868,3.8912,3.8963,3.8982,3.9056,3.9074,3.9105,3.9172,3.9192,3.9271,3.928,3.9379,3.9374,3.9364,3.9365,3.9423,3.9418,3.9606,3.9632,3.9473,3.9474,3.9475,0,3.8705,3.8762,3.882,3.8859,3.8888,3.895,3.899,3.9005,3.9046,3.9107,3.9151,3.9217,3.9272,3.9379,3.9409,3.9471,3.9468,3.953,3.9478,3.9476,3.9472,3.947,3.9477,3.954,3.9542,3.9543,3.9544,0,3.884,3.8848,3.8906,3.8969,3.9017,3.9067,3.9115,3.9146,3.9168,3.9215,3.9285,3.9327,3.941,3.9477,3.954,3.9568,3.9561,3.956,3.9578,3.9579,3.9572,3.9579,3.9393,3.9556,3.9555,3.9554,3.9554,3.9553,3.8935,3.8986,3.9036,3.9101,3.9139,3.9184,3.9236,3.9263,3.9321,3.9391,3.9395,3.9471,3.9519,3.9603,3.9634,3.9694,3.9676,3.97,3.9707,3.9714,3.972,3.956,3.9705,3.9705,3.9704,3.9704,3.9704,0,3.9071,3.9103,3.9163,3.9231,3.9283,3.9272,3.9325,3.9369,3.9436,3.9482,3.9536,3.9617,3.9682,3.9717,3.9782,3.9823,3.9822,3.984,3.9839,3.9846,3.9731,3.9711,3.9841,3.9841,3.9841,3.9841,3.9841,3.9841,3.9149,3.9236,3.9251,3.9357,3.9388,3.9464,3.9495,3.9537,3.9574,3.9665,3.972,3.9743,3.9785,3.9853,3.9913,3.9921,3.9947,3.9968,3.9975,3.9867,3.9853,3.984,3.9821,3.9972,3.9973,4.0085,4.0086,4.0087]}]]